#timestamp,LO_Frequency,Hit,StdDev 
1510239615.7,286046997.6,P
1510239635.6,286046992.2,P
1510239655.4,286046995.6,N
1510239675.2,286046996.3,N
1510239695.1,286046993.5,Y
1510239696.0,286046993.5,P
1510239715.8,286047001.2,N
1510239735.6,286047000.8,N
1510239755.5,286046998.6,N
1510239775.3,286046999.6,N
1510239795.1,286046998.2,N
1510239815.9,286046999.8,N
1510239835.7,286046998.3,N
1510239855.5,286047000.8,N
1510239875.4,286047000.5,N
1510239895.2,286046999.0,N
1510239915.0,286046996.5,N
1510239915.9,286046996.5,N
1510239935.8,286046999.3,N
1510239955.6,286047001.0,N
1510239975.4,286046999.3,N
1510239995.2,286047000.8,N
1510240015.1,286046999.9,N
1510240016.0,286046999.9,N
1510240035.8,286047000.8,N
1510240055.6,286046999.7,N
1510240075.5,286046999.8,N
1510240095.3,286047000.6,N
1510240115.1,286046999.4,N
1510240135.9,286047002.8,N
1510240155.7,286047000.1,N
1510240175.5,286046999.7,N
1510240195.4,286047002.7,N
1510240215.2,286047002.7,N
1510240235.0,286047002.5,N
1510240235.9,286047002.5,N
1510240255.8,286047002.2,N
1510240275.6,286047001.9,N
1510240295.4,286047006.0,Y
1510240315.3,286047001.3,P
1510240335.1,286046999.7,N
1510240336.0,286046999.7,N
1510240355.8,286046999.2,N
1510240375.7,286046998.7,N
1510240395.5,286047004.3,Y
1510240415.3,286047004.1,P
1510240435.2,286047000.4,N
1510240455.9,286047003.6,N
1510240475.7,286047007.5,Y
1510240495.6,286047004.2,P
1510240515.4,286047000.5,N
1510240535.2,286047000.8,N
1510240555.1,286046998.6,N
1510240556.0,286046998.6,N
1510240575.8,286046996.8,N
1510240595.6,286046995.4,N
1510240615.5,286046998.6,N
1510240635.3,286046998.1,N
1510240655.1,286047001.2,N
1510240675.9,286047000.2,N
1510240695.7,286047000.8,N
1510240715.5,286047000.0,N
1510240735.4,286046998.4,N
1510240755.2,286047000.7,N
1510240775.0,286047000.8,N
1510240775.9,286047000.8,N
1510240795.8,286046999.9,N
1510240815.6,286046999.1,N
1510240835.4,286046997.4,N
1510240855.3,286046993.3,Y
1510240875.1,286046996.2,P
1510240876.0,286046996.2,N
1510240895.8,286046996.9,N
1510240915.7,286046999.3,N
1510240935.5,286047000.8,N
1510240955.3,286047000.0,N
1510240975.1,286046999.0,N
1510240995.9,286047002.2,N
1510241015.7,286047000.2,N
1510241035.5,286046999.6,N
1510241055.4,286046993.3,Y
1510241075.2,286046994.0,P
1510241095.0,286046996.4,N
1510241096.0,286046996.4,N
1510241115.8,286046994.4,Y
1510241135.6,286046997.3,P
1510241155.5,286046999.0,N
1510241175.3,286046999.8,N
1510241195.1,286047002.2,N
1510241215.8,286047002.3,N
1510241235.7,286047004.1,N
1510241255.5,286047007.7,N
1510241275.4,286047010.5,Y
1510241295.2,286047007.0,P
1510241315.0,286047008.8,N
1510241315.9,286047008.8,N
1510241335.8,286047005.0,N
1510241355.6,286047004.1,N
1510241375.4,286046998.9,N
1510241395.2,286046995.0,N
1510241415.1,286046993.5,N
1510241416.0,286046993.5,N
1510241435.8,286046991.8,N
1510241455.6,286046992.7,N
1510241475.5,286046998.9,N
1510241495.3,286047001.9,N
1510241515.1,286047000.2,N
1510241535.9,286046995.0,N
1510241555.7,286047002.7,N
1510241575.5,286046998.4,N
1510241595.4,286046996.8,N
1510241615.2,286046994.2,N
1510241635.0,286046995.9,N
1510241635.9,286046995.9,N
1510241655.8,286046995.8,N
1510241675.6,286046994.0,N
1510241695.4,286046994.0,N
1510241715.2,286046992.7,N
1510241735.1,286046993.0,N
1510241736.0,286046993.0,N
1510241755.8,286046994.8,N
1510241775.6,286046989.1,N
1510241795.5,286046985.3,N
1510241815.3,286046985.7,N
1510241835.1,286046987.0,N
1510241855.9,286046990.9,N
1510241875.7,286046991.2,N
1510241895.5,286046992.9,N
1510241915.4,286046991.9,N
1510241935.2,286046991.4,N
1510241955.0,286046993.1,N
1510241955.9,286046993.1,N
1510241975.8,286046991.5,N
1510241995.6,286046987.3,Y
1510242015.4,286046993.6,P
1510242035.3,286046994.2,P
1510242055.1,286046994.2,P
1510242075.8,286046993.0,Y
1510242095.7,286046999.2,P
1510242115.5,286046998.8,N
1510242135.3,286046998.4,N
1510242155.2,286046996.6,N
1510242175.9,286046997.5,N
1510242195.7,286046996.4,N
1510242215.6,286046998.8,N
1510242235.4,286046998.3,N
1510242255.2,286046998.5,N
1510242275.1,286047001.4,N
1510242276.0,286047001.4,N
1510242295.8,286047003.4,N
1510242315.6,286047007.5,Y
1510242335.5,286047008.6,P
1510242355.3,286047006.3,N
1510242375.1,286047006.5,N
1510242395.9,286047004.7,N
1510242415.7,286047007.3,N
1510242435.5,286047007.5,N
1510242455.3,286047005.9,N
1510242475.2,286047007.8,N
1510242495.0,286047008.0,N
1510242495.9,286047008.0,N
1510242515.8,286047008.4,Y
1510242535.6,286046999.8,P
1510242555.4,286047002.4,N
1510242575.2,286046999.9,N
1510242595.1,286047001.0,N
1510242596.0,286047001.0,N
1510242615.8,286047000.9,N
1510242635.6,286047003.7,N
1510242655.5,286047000.1,N
1510242675.3,286047001.3,N
1510242695.1,286047003.8,N
1510242715.9,286047002.0,N
1510242735.7,286047000.4,N
1510242755.5,286046999.3,N
1510242775.4,286046998.3,N
1510242795.2,286046998.9,N
1510242815.0,286046993.4,Y
1510242815.9,286046993.4,P
1510242835.8,286046990.3,N
1510242855.6,286046992.5,N
1510242875.4,286046990.4,N
1510242895.3,286046992.9,N
1510242915.1,286046991.9,N
1510242935.8,286046994.9,N
1510242955.7,286046997.8,N
1510242975.5,286046999.6,N
1510242995.3,286046997.2,N
1510243015.2,286046999.1,N
1510243035.9,286046999.6,N
1510243055.7,286046995.0,N
1510243075.6,286046996.8,N
1510243095.4,286046996.9,N
1510243115.2,286046998.7,N
1510243135.0,286046998.0,N
1510243136.0,286046998.0,N
1510243155.8,286046996.5,N
1510243175.6,286046994.9,N
1510243195.4,286046997.4,N
